Location: Blangy-Tronville
(49.8790°N, 2.4226°E)
Time: 01:51:17
(UTC+00:00)

COSMO-SKYMED 1 - Pass Details

Date: 18 November 2025
Orbit: 579 x 581 km, 97.9° (Epoch: 04 December)

Event Time Altitude Azimuth Distance (km) Brightness Sun altitude
Exits shadow 17:26:15 21° 75° (ENE) 1,326 3.6 -13.3°
Maximum altitude 17:27:06 22° 93° (E) 1,274 3.6 -13.4°
Drops below altitude 10° 17:30:21 10° 146° (SE) 1,892 4.8 -13.9°
Sets 17:32:52 0° 161° (SSE) 2,786 5.9 -14.3°
